map of BDA home
BDA - Airport
Location
City:  Bermuda, Bermuda
Near (Alt.):St. George
Name:L.F. Wade International Airport
Old (Alt.):Bermuda International, Kindley Field
ICAO:TXKF
IATA:BDA

Details
Type:Airport (Aerodrome, Airfield)
Use:Public/Civil, International (customs port of entry)
Latitude:3221'51"N (32.364028)
Longitude:6440'43"W (-64.678693)
Datum:WGS 1984
Elevation:18 ft (5 m)
Variation:14.76W (WMM2015 magnetic declination)
0.04 annual change
Runways:1
Longest:9706 × 150 ft (2958 × 45.5 m), paved

Time
Time Zone:UTC-4 (DST-3)
Local Time:

Weather
METAR:TXKF 241155Z 19014KT 9999 FEW015 27/23 Q1023
TAF:TXKF 241135Z 2412/2512 19015KT 9999 FEW015

Related Locations
Nearby:
Farthest:RTS: 12432 mi / 20007 km
Rottnest Island, WA, AU

Find:

   beyond  
but within

Other Information
Maps:
NOTAMs:
Links:
Sources:

  
  • flag of Bermuda
  

Airport Diagram

Airport diagram for BDA

Larger airport diagram (OBSOLETE) from NGA

Sectional Chart

Flight Planning
at skyvector.com

Satellite Image

Google Maps Satellite view

 

Copyright © 2004-2018 Karl L. Swartz. All rights reserved.
The Great Circle Mapper name and logo are trademarks of the Great Circle Mapper.
All other trademarks mentioned herein belong to their respective owners.
Please see credits for attibutions and further copyright information.

  Follow gcmap on Facebook Follow gcmap on Twitter Follow gcmap on Google+ GCmap on LinkedIn

hCard Microformat

Geo Microformat